TimeEDT,TemperatureF,Dew PointF,Humidity,Sea Level PressureIn,VisibilityMPH,Wind Direction,Wind SpeedMPH,Gust SpeedMPH,PrecipitationIn,Events,Conditions,WindDirDegrees,DateUTC
12:10 AM,77.0,75.2,94,30.01,10.0,ESE,5.8,-,N/A,,Mostly Cloudy,110,2013-04-19 04:10:00
12:58 AM,74.5,73.8,98,30.02,10.0,East,10.4,-,0.00,,Mostly Cloudy,90,2013-04-19 04:58:00
1:02 AM,73.4,73.4,100,30.01,10.0,East,8.1,-,N/A,Rain,Light Rain,90,2013-04-19 05:02:00
1:17 AM,73.4,73.4,100,30.01,10.0,East,10.4,-,N/A,,Mostly Cloudy,100,2013-04-19 05:17:00
1:25 AM,73.4,73.4,100,30.01,5.0,East,10.4,-,N/A,Rain,Light Rain,100,2013-04-19 05:25:00
1:35 AM,73.4,73.4,100,30.01,2.5,SE,10.4,-,N/A,Rain,Heavy Rain,140,2013-04-19 05:35:00
1:50 AM,71.6,71.6,100,30.00,4.0,SE,3.5,-,N/A,Rain,Light Rain,130,2013-04-19 05:50:00
1:56 AM,71.6,71.6,100,30.00,10.0,SE,4.6,-,N/A,,Mostly Cloudy,130,2013-04-19 05:56:00
1:58 AM,71.6,71.6,100,30.01,10.0,SE,4.6,-,0.16,,Mostly Cloudy,130,2013-04-19 05:58:00
2:03 AM,73.4,73.4,100,30.00,10.0,ESE,4.6,-,N/A,,Mostly Cloudy,110,2013-04-19 06:03:00
2:58 AM,72.1,72.0,99,30.00,10.0,East,6.9,-,N/A,,Partly Cloudy,100,2013-04-19 06:58:00
3:58 AM,71.4,71.4,100,29.99,10.0,ESE,6.9,-,N/A,,Clear,110,2013-04-19 07:58:00
4:58 AM,72.0,72.0,100,29.98,10.0,SE,9.2,-,0.01,,Clear,130,2013-04-19 08:58:00
5:58 AM,72.1,72.1,100,29.98,10.0,SE,10.4,-,N/A,,Clear,130,2013-04-19 09:58:00
6:58 AM,72.5,72.5,100,30.00,10.0,SE,9.2,-,N/A,,Clear,140,2013-04-19 10:58:00
7:58 AM,73.8,73.8,100,30.01,10.0,SE,10.4,-,N/A,,Clear,140,2013-04-19 11:58:00
8:58 AM,76.1,74.7,95,30.02,10.0,SSE,12.7,-,N/A,,Clear,150,2013-04-19 12:58:00
9:58 AM,78.8,75.6,90,30.03,10.0,SSE,16.1,-,N/A,,Clear,160,2013-04-19 13:58:00
10:58 AM,82.2,75.9,81,30.03,10.0,SSE,18.4,-,N/A,,Partly Cloudy,160,2013-04-19 14:58:00
11:58 AM,86.0,75.2,70,-9999,10.0,South,12.7,23.0,N/A,,Partly Cloudy,180,2013-04-19 15:58:00
12:03 PM,86.0,75.2,70,30.02,10.0,South,12.7,23.0,N/A,,Partly Cloudy,180,2013-04-19 16:03:00
12:58 PM,87.8,71.6,58,30.03,10.0,SSW,20.7,-,N/A,,Partly Cloudy,200,2013-04-19 16:58:00
1:58 PM,86.9,74.3,66,30.01,10.0,SSW,23.0,-,N/A,,Partly Cloudy,210,2013-04-19 17:58:00
2:58 PM,87.1,74.3,66,29.98,10.0,SSW,21.9,-,N/A,,Partly Cloudy,200,2013-04-19 18:58:00
3:58 PM,86.2,74.1,67,29.96,10.0,SSW,21.9,28.8,N/A,,Partly Cloudy,210,2013-04-19 19:58:00
4:58 PM,84.9,75.0,72,29.96,10.0,SSW,19.6,26.5,N/A,,Clear,210,2013-04-19 20:58:00
5:58 PM,84.2,75.7,76,29.96,10.0,SSW,17.3,-,N/A,,Clear,210,2013-04-19 21:58:00
6:58 PM,81.1,74.3,80,29.96,10.0,SW,18.4,-,N/A,,Clear,220,2013-04-19 22:58:00
7:58 PM,78.1,74.7,89,29.97,10.0,SW,15.0,-,N/A,,Clear,220,2013-04-19 23:58:00
8:58 PM,77.2,74.7,92,30.00,10.0,SSW,15.0,-,N/A,,Clear,210,2013-04-20 00:58:00
9:58 PM,76.8,75.0,94,30.02,10.0,SSW,13.8,-,N/A,,Clear,200,2013-04-20 01:58:00
10:58 PM,76.8,75.0,94,30.03,10.0,SSW,11.5,-,N/A,,Mostly Cloudy,200,2013-04-20 02:58:00
11:58 PM,76.5,75.4,96,30.02,10.0,South,8.1,-,N/A,,Clear,190,2013-04-20 03:58:00